Home   Weather   Bloomington   Past weeks

Flag for USA Past Weather in Bloomington, Indiana, USA — Yesterday and Last 2 Weeks

Now
85 °F

Sunny.


Feels Like: 88 °F
Forecast: 65 / 85 °F
Wind: 6 mph from Southeast

Location: Monroe County Airport

Current Time: Sep 25, 2016 at 3:11:04 PM

Latest Report: Sep 25, 2016 at 1:53 PM


Visibility: 10 mi

Pressure: 30.06 "Hg

Humidity: 55%

Dew Point: 67 °F

Location of BloomingtonLocation

Past Weather in Bloomington — Graph

°F

Bloomington Temperature Yesterday

Maximum temperature yesterday: 87 °F (at 2:53 PM)
Minimum temperature yesterday: 61 °F (at 8:00 AM)
Average temperature yesterday: 73 °F

High & Low Weather Summary for the Past Weeks

 TemperatureHumidityPressure
High87 °F (Sep 21, 1:53 PM)97% (Sep 12, 1:53 AM)30.23 "Hg (Sep 12, 1:53 AM)
Low52 °F (Sep 13, 6:55 AM)37% (Sep 19, 3:53 PM)29.87 "Hg (Sep 10, 4:53 PM)
Average70 °F77%30.08 "Hg
* Reported Sep 10 1:53 PM — Sep 25 1:53 PM, Bloomington, Weather by CustomWeather, © 2016

Note: Actual official high and low records may vary slightly from our data, if they occured in-between our weather recording intervals... More about our weather records

Advertising

Bloomington Weather History for the Previous 24 Hours

Scroll right to see more
 ConditionsComfort  
Time TempWeatherWind HumidityBarometerVisibility
1:53 PM
Sun, Sep 25
85 °FSunny.6 mph55%30.06 "Hg10 mi
12:53 PM82 °FSunny.6 mph63%30.08 "Hg10 mi
11:53 AM79 °FSunny.5 mph67%30.09 "Hg10 mi
10:53 AM76 °FSunny.6 mph72%30.10 "Hg10 mi
9:53 AM71 °FSunny.7 mph81%30.11 "Hg9 mi
8:53 AM68 °FFog.5 mph87%30.11 "Hg6 mi
7:53 AM67 °FFog.3 mph87%30.10 "Hg6 mi
6:53 AM67 °FClear.3 mph87%30.09 "Hg8 mi
5:53 AM65 °FFog.No wind91%30.08 "Hg6 mi
4:53 AM67 °FClear.No wind87%30.08 "Hg8 mi
3:53 AM67 °FClear.3 mph90%30.08 "Hg7 mi
2:53 AM65 °FFog.No wind94%30.10 "Hg6 mi
1:53 AM68 °FClear.No wind90%30.10 "Hg8 mi
12:53 AM71 °FClear.No wind84%30.09 "Hg10 mi
11:53 PM
Sat, Sep 24
72 °FClear.6 mph84%30.09 "Hg10 mi
10:53 PM73 °FClear.5 mph81%30.08 "Hg10 mi
9:53 PM69 °FClear.3 mph87%30.08 "Hg7 mi
8:53 PM71 °FFog.No wind90%30.07 "Hg6 mi
7:53 PM77 °FClear.3 mph74%30.07 "Hg10 mi
6:53 PM82 °FSunny.3 mph63%30.07 "Hg10 mi
5:53 PM85 °FSunny.3 mph53%30.07 "Hg10 mi
4:53 PM87 °FPassing clouds.3 mph51%30.08 "Hg10 mi
3:53 PM84 °FPartly sunny.6 mph55%30.08 "Hg10 mi
Weather by CustomWeather, © 2016

See weather overviewHow to use our weather pages